Weather Roundup
Issued by NWS Chicago, IL

Home | Current Version | Previous Version | Text Only | Print | Product List | Glossary On
Versions: 1 2 3 4 5 6 7 8 9 10 11 12 13 14 15 16 17 18 19 20 21 22 23 24 25 26 27 28 29 30 31 32 33 34 35 36 37 38 39 40 41 42 43 44 45 46 47 48 49 50
000
NZUS59 KLOT 292308
HRRLOT

CHICAGO AREA WEATHER ROUNDUP
NATIONAL WEATHER SERVICE CHICAGO/ROMEOVILLE IL
600 PM CDT SUN MAY 29 2016

NOTE: "FAIR" INDICATES FEW OR NO CLOUDS BELOW 12,000 FEET WITH NO
SIGNIFICANT WEATHER AND/OR OBSTRUCTIONS TO VISIBILITY.

* THESE STATIONS ARE NOT UNDER NWS QUALITY CONTROL. THEY ALSO MAY NOT
  REPORT WEATHER SUCH AS PRECIPITATION OR FOG.

ILZ005-006-012>014-019>023-300000-
NORTHEAST ILLINOIS

CITY           SKY/WX    TMP DP  RH WIND       PRES   REMARKS
OHARE          MOSUNNY   77  58  51 W13G23    29.97F
MIDWAY         MOSUNNY   80  56  43 W16G23    29.98F HX  80
AURORA         SUNNY     79  59  50 W16       30.00F HX  80
LANSING*       MOSUNNY   80  54  41 W16       29.99F HX  80
JOLIET*        MOSUNNY   82  58  43 W12       30.00S HX  82
WAUKEGAN       MOSUNNY   78  57  48 SW8       29.96S
DUPAGE AIRPORT MOSUNNY   77  56  48 W12       29.99S
WHEELING       MOSUNNY   80  56  43 W10       29.98F HX  80
KANKAKEE*      SUNNY     82  53  36 W14       30.00F HX  81
MORRIS*        MOSUNNY   81  55  40 W13G18    29.99S HX  81
LEWIS AIRPORT* SUNNY     80  52  37 W12       30.00F HX  80
$$

WIZ051-052-058>065-066-070>072-300000-
SOUTHEAST WISCONSIN

CITY           SKY/WX    TMP DP  RH WIND       PRES   REMARKS
MILWAUKEE      MOSUNNY   80  55  42 W15G21    29.94S HX  80
KENOSHA*       MOSUNNY   78  57  48 W14G25    29.96S
RACINE*        SUNNY     80  55  42 W14G20    29.96S HX  80
BURLINGTON     SUNNY     77  53  44 W13       29.97R
WAUKESHA       PTSUNNY   73  54  49 W12G23    29.96S
WEST BEND      MOSUNNY   75  54  46 W13G21    29.93S
$$

INZ001>003-010>013-019-020-300000-
NORTHWEST INDIANA

CITY           SKY/WX    TMP DP  RH WIND       PRES   REMARKS
GARY*          MOSUNNY   81  64  57 W17       29.99F HX  82
MICHIGAN CITY* NOT AVBL
RENSSELAER*    NOT AVBL
VALPARAISO     MOSUNNY   81  56  42 W15       30.00F HX  81
$$

LMZ740>746-300000-
SOUTHERN LAKE MICHIGAN

STATION/POSITION TIME  SKY/WX   TEMP WIND        PRES    VSBY
                                AIR  DIR/SP/G
                 (UTC)          (F)  (DEG/KT/KT) (MB)    (MI)
HARRISON CRIB    2200            78  250/ 19/ 21   N/A
BURNHAM HARBOR   2300            79  280/ 12/ 16   N/A
CALUMET HARBOR   2200            79  250/  7/ 12 1015.1F
BURNS HARBOR     2200            66  290/  8/ 10 1016.3S
MICHIGAN CITY    2200            68  250/ 10/ 11   N/A
$$

ABBREVIATIONS USED IN REMARKS
   TC - TEMPERATURE IN CELSIUS
  WCI - WIND CHILL INDEX
   HX - HEAT INDEX
  VSB - VISIBILITY
$$




USA.gov is the U.S. government's official web portal to all federal, state and local government web resources and services.